sampling_time,wmo_synop_id,msc_id,stn_nam,stn_elev,lat,long,stn_typ,date_tm,rpt_typ,result_time,crnt_buoy_lat,crnt_buoy_lat_qa_summary,crnt_buoy_long,crnt_buoy_long_qa_summary,avg_air_temp_pst10mts,avg_air_temp_pst10mts_qa_summary,avg_sea_sfc_temp_pst10mts,avg_sea_sfc_temp_pst10mts_qa_summary,avg_batry_volt_pst10mts,avg_batry_volt_pst10mts_qa_summary,avg_solr_panl_crnt_pst10mts,avg_solr_panl_crnt_pst10mts_qa_summary,avg_wtr_lvl_snsr_volt_pst10mts,avg_wtr_lvl_snsr_volt_pst10mts_qa_summary,avg_wave_hgt_pst20mts,avg_wave_hgt_pst20mts_qa_summary,pk_wave_hgt_pst20mts,pk_wave_hgt_pst20mts_qa_summary,sig_wave_pd_pst20mts,sig_wave_pd_pst20mts_qa_summary,sig_wave_hgt_pst20mts,sig_wave_hgt_pst20mts_qa_summary,avg_max_wave_hgt_pst20mts,avg_max_wave_hgt_pst20mts_qa_summary,avg_max_wave_pd_pst20mts,avg_max_wave_pd_pst20mts_qa_summary,avg_wave_pd_pst20mts,avg_wave_pd_pst20mts_qa_summary,pk_wave_pd_pst20mts,pk_wave_pd_pst20mts_qa_summary,avg_stn_pres_pst10mts,avg_stn_pres_pst10mts_qa_summary,avg_wnd_spd_pst10mts,avg_wnd_spd_pst10mts_qa_summary,avg_wnd_dir_pst10mts,avg_wnd_dir_pst10mts_qa_summary,max_avg_wnd_spd_pst10mts,max_avg_wnd_spd_pst10mts_qa_summary,wnd_snsr_vert_disp,wnd_snsr_vert_disp_qa_summary,pres_tend_amt_pst3hrs,pres_tend_amt_pst3hrs_data_flag,pres_tend_char_pst3hrs,pres_tend_char_pst3hrs_data_flag,avg_mslp_pst10mts,avg_mslp_pst10mts_data_flag,avg_stn_pres_pst10mts_1,avg_stn_pres_pst10mts_1_qa_summary,avg_stn_pres_pst10mts_2,avg_stn_pres_pst10mts_2_qa_summary,avg_wnd_spd_pst10mts_1,avg_wnd_spd_pst10mts_1_qa_summary,avg_wnd_spd_pst10mts_2,avg_wnd_spd_pst10mts_2_qa_summary,avg_wnd_dir_pst10mts_1,avg_wnd_dir_pst10mts_1_qa_summary,avg_wnd_dir_pst10mts_2,avg_wnd_dir_pst10mts_2_qa_summary,max_avg_wnd_spd_pst10mts_1,max_avg_wnd_spd_pst10mts_1_qa_summary,max_avg_wnd_spd_pst10mts_2,max_avg_wnd_spd_pst10mts_2_qa_summary
2023-10-18T00:00:00Z,44489,9302001,WEST CHEDABUCTO BAY,0,45.48687,-61.14100000000001,18,2023-10-18T00:00:00.000Z,108,2023-10-18T00:03:18.053Z,45.48692,10,-61.141130000000004,100,8.3,100,13.6,100,12.3,100,0.0,100,3.5,100,0.3,100,0.9,100,4.8,100,0.5,100,0.6,100,5.7,100,3.5,100,10.0,100,1011.2,100,24.5,100,26,100,29.2,100,5,100,2.8,1,3,1,1011.2,1,1011.2,100,1011.1,100,24.5,100,23.8,100,26,100,21,100,29.2,100,28.4,100
2023-10-18T00:10:00Z,44489,9302001,WEST CHEDABUCTO BAY,0,45.48687,-61.14100000000001,18,2023-10-18T00:10:00.000Z,110,2023-10-18T00:13:24.497Z,45.4869,100,-61.14113,100,9.0,100,14.2,100,12.3,100,0.0,100,3.5,100,,-1,,-1,,-1,,-1,,-1,,-1,,-1,,-1,1011.3,100,25.9,100,23,100,32.0,100,5,100,2.8,1,2,1,1011.3,1,1011.3,100,1011.2,100,25.9,100,25.2,100,23,100,18,100,32.0,100,31.0,100
2023-10-18T00:20:00Z,44489,9302001,WEST CHEDABUCTO BAY,0,45.48687,-61.14100000000001,18,2023-10-18T00:20:00.000Z,110,2023-10-18T00:23:22.450Z,45.48692,100,-61.141130000000004,100,8.4,100,13.6,100,12.3,100,0.0,100,3.5,100,,-1,,-1,,-1,,-1,,-1,,-1,,-1,,-1,1011.4,100,24.8,100,25,100,30.2,100,5,100,2.9,1,1,1,1011.4,1,1011.4,100,1011.4,100,24.8,100,24.1,100,25,100,20,100,30.2,100,30.2,100
2023-10-18T00:30:00Z,44489,9302001,WEST CHEDABUCTO BAY,0,45.48687,-61.14100000000001,18,2023-10-18T00:30:00.000Z,110,2023-10-18T00:33:30.292Z,45.48692,100,-61.14112,100,8.4,100,13.6,100,12.3,100,0.0,100,3.5,100,,-1,,-1,,-1,,-1,,-1,,-1,,-1,,-1,1011.6,100,24.1,100,20,100,28.4,100,5,100,3.0,1,2,1,1011.6,1,1011.6,100,1011.6,100,24.1,100,23.0,100,20,100,15,100,28.4,100,27.4,100
2023-10-18T00:40:00Z,44489,9302001,WEST CHEDABUCTO BAY,0,45.48687,-61.14100000000001,18,2023-10-18T00:40:00.000Z,110,2023-10-18T00:43:25.907Z,45.48693,100,-61.141119999999994,100,8.4,100,13.6,100,12.2,100,0.0,100,3.5,100,,-1,,-1,,-1,,-1,,-1,,-1,,-1,,-1,1011.8,100,23.4,100,14,100,28.1,100,5,100,3.0,1,2,1,1011.8,1,1011.8,100,1011.8,100,23.4,100,22.7,100,14,100,9,100,28.1,100,28.1,100
2023-10-18T00:50:00Z,44489,9302001,WEST CHEDABUCTO BAY,0,45.48687,-61.14100000000001,18,2023-10-18T00:50:00.000Z,110,2023-10-18T00:53:26.266Z,45.48693,100,-61.14115,100,8.4,100,13.6,100,12.2,100,0.0,100,3.5,100,,-1,,-1,,-1,,-1,,-1,,-1,,-1,,-1,1011.9,100,22.7,100,8,100,27.0,100,5,100,2.9,1,1,1,1011.9,1,1011.9,100,1011.9,100,22.7,100,22.0,100,8,100,3,100,27.0,100,27.0,100
2023-10-18T01:00:00Z,44489,9302001,WEST CHEDABUCTO BAY,0,45.48687,-61.14100000000001,18,2023-10-18T01:00:00.000Z,108,2023-10-18T01:03:36.323Z,45.48692,10,-61.141119999999994,100,8.6,100,13.6,100,12.2,100,0.0,100,3.5,100,0.3,100,0.7,100,5.2,100,0.4,100,0.5,100,6.3,100,3.6,100,10.5,100,1012.0,100,24.8,100,16,100,31.0,100,5,100,2.7,1,2,1,1012.0,1,1012.0,100,1011.9,100,24.8,100,24.1,100,16,100,11,100,31.0,100,29.9,100
2023-10-18T01:10:00Z,44489,9302001,WEST CHEDABUCTO BAY,0,45.48687,-61.14100000000001,18,2023-10-18T01:10:00.000Z,110,2023-10-18T01:16:36.677Z,45.48693,100,-61.14113,100,8.6,100,13.6,100,12.2,100,0.0,100,3.5,100,,-1,,-1,,-1,,-1,,-1,,-1,,-1,,-1,1012.1,100,25.6,100,14,100,31.3,100,5,100,2.7,1,2,1,1012.1,1,1012.1,100,1012.1,100,25.6,100,24.8,100,14,100,9,100,31.3,100,31.3,100
2023-10-18T01:20:00Z,44489,9302001,WEST CHEDABUCTO BAY,0,45.48687,-61.14100000000001,18,2023-10-18T01:20:00.000Z,110,2023-10-18T01:22:36.882Z,45.48692,100,-61.1411,100,8.5,100,13.6,100,12.2,100,0.0,100,3.5,100,,-1,,-1,,-1,,-1,,-1,,-1,,-1,,-1,1012.2,100,24.1,100,12,100,28.1,100,5,100,2.6,1,1,1,1012.2,1,1012.2,100,1012.2,100,24.1,100,23.4,100,12,100,7,100,28.1,100,27.4,100
2023-10-18T01:30:00Z,44489,9302001,WEST CHEDABUCTO BAY,0,45.48687,-61.14100000000001,18,2023-10-18T01:30:00.000Z,110,2023-10-18T01:32:41.881Z,45.48692,100,-61.14108,100,8.4,100,13.6,100,12.2,100,0.0,100,3.5,100,,-1,,-1,,-1,,-1,,-1,,-1,,-1,,-1,1012.3,100,23.8,100,15,100,29.5,100,5,100,2.6,1,1,1,1012.3,1,1012.3,100,1012.2,100,23.8,100,23.4,100,15,100,10,100,29.5,100,28.8,100
2023-10-18T01:40:00Z,44489,9302001,WEST CHEDABUCTO BAY,0,45.48687,-61.14100000000001,18,2023-10-18T01:40:00.000Z,110,2023-10-18T01:42:40.748Z,45.4869,100,-61.1411,100,8.4,100,13.6,100,12.2,100,0.0,100,3.5,100,,-1,,-1,,-1,,-1,,-1,,-1,,-1,,-1,1012.4,100,25.6,100,15,100,29.9,100,5,100,2.5,1,1,1,1012.4,1,1012.4,100,1012.3,100,25.6,100,24.8,100,15,100,10,100,29.9,100,28.8,100
2023-10-18T01:50:00Z,44489,9302001,WEST CHEDABUCTO BAY,0,45.48687,-61.14100000000001,18,2023-10-18T01:50:00.000Z,110,2023-10-18T01:52:45.109Z,45.48687,100,-61.1411,100,8.3,100,13.6,100,12.2,100,0.0,100,3.5,100,,-1,,-1,,-1,,-1,,-1,,-1,,-1,,-1,1012.5,100,22.7,100,18,100,25.9,100,5,100,2.4,1,1,1,1012.5,1,1012.5,100,1012.5,100,22.7,100,22.0,100,18,100,13,100,25.9,100,25.6,100
2023-10-18T02:00:00Z,44489,9302001,WEST CHEDABUCTO BAY,0,45.48687,-61.14100000000001,18,2023-10-18T02:00:00.000Z,108,2023-10-18T02:02:54.519Z,45.48693,100,-61.141119999999994,100,8.3,100,13.6,100,12.2,100,0.0,100,3.5,100,0.3,100,0.7,100,4.7,100,0.4,100,0.5,100,5.4,100,3.5,100,10.5,100,1012.6,100,22.3,100,18,100,26.6,100,5,100,2.5,1,1,1,1012.6,1,1012.6,100,1012.6,100,22.3,100,21.6,100,18,100,13,100,26.6,100,26.3,100
2023-10-18T02:10:00Z,44489,9302001,WEST CHEDABUCTO BAY,0,45.48687,-61.14100000000001,18,2023-10-18T02:10:00.000Z,110,2023-10-18T02:15:56.103Z,45.48697,100,-61.14113,100,8.3,100,13.6,100,12.2,100,0.0,100,3.5,100,,-1,,-1,,-1,,-1,,-1,,-1,,-1,,-1,1012.7,100,23.4,100,18,100,28.4,100,5,100,2.4,1,1,1,1012.7,1,1012.7,100,1012.7,100,23.4,100,23.0,100,18,100,13,100,28.4,100,28.4,100
2023-10-18T02:20:00Z,44489,9302001,WEST CHEDABUCTO BAY,0,45.48687,-61.14100000000001,18,2023-10-18T02:20:00.000Z,110,2023-10-18T02:22:54.459Z,45.48692,100,-61.1411,100,8.4,100,13.6,100,12.2,100,0.0,100,3.5,100,,-1,,-1,,-1,,-1,,-1,,-1,,-1,,-1,1012.8,100,23.4,100,21,100,29.2,100,5,100,2.4,1,1,1,1012.8,1,1012.8,100,1012.8,100,23.4,100,22.7,100,21,100,16,100,29.2,100,29.5,100
2023-10-18T02:30:00Z,44489,9302001,WEST CHEDABUCTO BAY,0,45.48687,-61.14100000000001,18,2023-10-18T02:30:00.000Z,110,2023-10-18T02:32:56.289Z,45.48693,100,-61.14113,100,8.4,100,13.6,100,12.2,100,0.0,100,3.5,100,,-1,,-1,,-1,,-1,,-1,,-1,,-1,,-1,1012.9,100,23.4,100,23,100,27.4,100,5,100,2.3,1,1,1,1012.9,1,1012.9,100,1012.8,100,23.4,100,23.0,100,23,100,18,100,27.4,100,27.7,100
2023-10-18T02:40:00Z,44489,9302001,WEST CHEDABUCTO BAY,0,45.48687,-61.14100000000001,18,2023-10-18T02:40:00.000Z,110,2023-10-18T02:42:57.417Z,45.48693,100,-61.141130000000004,100,8.3,100,13.6,100,12.2,100,0.0,100,3.5,100,,-1,,-1,,-1,,-1,,-1,,-1,,-1,,-1,1013.0,100,24.8,100,19,100,29.2,100,5,100,2.3,1,1,1,1013.0,1,1013.0,100,1013.0,100,24.8,100,24.1,100,19,100,14,100,29.2,100,28.8,100
2023-10-18T02:50:00Z,44489,9302001,WEST CHEDABUCTO BAY,0,45.48687,-61.14100000000001,18,2023-10-18T02:50:00.000Z,110,2023-10-18T02:52:59.772Z,45.48692,100,-61.1411,100,8.3,100,13.6,100,12.2,100,0.0,100,3.5,100,,-1,,-1,,-1,,-1,,-1,,-1,,-1,,-1,1013.2,100,23.8,100,17,100,30.2,100,5,100,2.2,1,1,1,1013.2,1,1013.2,100,1013.1,100,23.8,100,23.0,100,17,100,13,100,30.2,100,30.2,100
2023-10-18T03:00:00Z,44489,9302001,WEST CHEDABUCTO BAY,0,45.48687,-61.14100000000001,18,2023-10-18T03:00:00.000Z,108,2023-10-18T03:03:12.865Z,45.48692,100,-61.141119999999994,100,8.2,100,13.6,100,12.2,100,0.0,100,3.5,100,0.2,100,0.5,100,4.6,100,0.3,100,0.4,100,5.1,100,3.4,100,11.1,100,1013.3,100,22.3,100,14,100,27.4,100,5,100,2.2,1,1,1,1013.3,1,1013.3,100,1013.3,100,22.3,100,22.0,100,14,100,9,100,27.4,100,26.6,100
2023-10-18T03:10:00Z,44489,9302001,WEST CHEDABUCTO BAY,0,45.48687,-61.14100000000001,18,2023-10-18T03:10:00.000Z,110,2023-10-18T03:16:03.605Z,45.4869,100,-61.14112,100,8.1,100,13.6,100,12.2,100,0.0,100,3.5,100,,-1,,-1,,-1,,-1,,-1,,-1,,-1,,-1,1013.5,100,22.7,100,16,100,27.0,100,5,100,2.2,1,1,1,1013.5,1,1013.5,100,1013.4,100,22.7,100,22.0,100,16,100,11,100,27.0,100,26.6,100
2023-10-18T03:20:00Z,44489,9302001,WEST CHEDABUCTO BAY,0,45.48687,-61.14100000000001,18,2023-10-18T03:20:00.000Z,110,2023-10-18T03:23:05.743Z,45.4869,100,-61.141119999999994,100,8.0,100,13.6,100,12.2,100,0.0,100,3.5,100,,-1,,-1,,-1,,-1,,-1,,-1,,-1,,-1,1013.6,100,23.0,100,22,100,27.7,100,5,100,2.2,1,2,1,1013.6,1,1013.6,100,1013.5,100,23.0,100,22.3,100,22,100,17,100,27.7,100,27.7,100
2023-10-18T03:30:00Z,44489,9302001,WEST CHEDABUCTO BAY,0,45.48687,-61.14100000000001,18,2023-10-18T03:30:00.000Z,110,2023-10-18T03:33:12.380Z,45.48688,100,-61.14112,100,8.1,100,13.6,100,12.2,100,0.0,100,3.5,100,,-1,,-1,,-1,,-1,,-1,,-1,,-1,,-1,1013.7,100,23.8,100,25,100,29.5,100,5,100,2.1,1,3,1,1013.7,1,1013.7,100,1013.6,100,23.8,100,23.0,100,25,100,20,100,29.5,100,29.5,100
2023-10-18T03:40:00Z,44489,9302001,WEST CHEDABUCTO BAY,0,45.48687,-61.14100000000001,18,2023-10-18T03:40:00.000Z,110,2023-10-18T03:43:15.214Z,45.4869,100,-61.141119999999994,100,8.0,100,13.6,100,12.2,100,0.0,100,3.5,100,,-1,,-1,,-1,,-1,,-1,,-1,,-1,,-1,1013.8,100,24.8,100,21,100,29.9,100,5,100,2.0,1,3,1,1013.8,1,1013.8,100,1013.8,100,24.8,100,24.1,100,21,100,16,100,29.9,100,29.9,100
2023-10-18T03:50:00Z,44489,9302001,WEST CHEDABUCTO BAY,0,45.48687,-61.14100000000001,18,2023-10-18T03:50:00.000Z,110,2023-10-18T03:53:16.436Z,45.48688,100,-61.14112,100,8.0,100,13.6,100,12.2,100,0.0,100,3.5,100,,-1,,-1,,-1,,-1,,-1,,-1,,-1,,-1,1013.9,100,24.5,100,22,100,28.4,100,5,100,2.0,1,3,1,1013.9,1,1013.9,100,1013.9,100,24.5,100,23.8,100,22,100,17,100,28.4,100,28.8,100
2023-10-18T04:00:00Z,44489,9302001,WEST CHEDABUCTO BAY,0,45.48687,-61.14100000000001,18,2023-10-18T04:00:00.000Z,108,2023-10-18T04:03:27.934Z,45.4869,100,-61.141119999999994,100,7.9,100,13.6,100,12.2,100,0.0,100,3.5,100,0.2,100,0.6,100,4.5,100,0.3,100,0.4,100,5.2,100,3.3,100,9.5,100,1014.1,100,23.4,100,23,100,28.8,100,5,100,2.1,1,3,1,1014.1,1,1014.1,100,1014.1,100,23.4,100,23.0,100,23,100,18,100,28.8,100,27.7,100
2023-10-18T04:10:00Z,44489,9302001,WEST CHEDABUCTO BAY,0,45.48687,-61.14100000000001,18,2023-10-18T04:10:00.000Z,110,2023-10-18T04:16:18.811Z,45.48692,100,-61.14112,100,8.0,100,13.6,100,12.2,100,0.0,100,3.5,100,,-1,,-1,,-1,,-1,,-1,,-1,,-1,,-1,1014.2,100,22.7,100,19,100,28.8,100,5,100,2.1,1,3,1,1014.2,1,1014.2,100,1014.2,100,22.7,100,22.0,100,19,100,14,100,28.8,100,27.7,100
2023-10-18T04:20:00Z,44489,9302001,WEST CHEDABUCTO BAY,0,45.48687,-61.14100000000001,18,2023-10-18T04:20:00.000Z,110,2023-10-18T04:23:24.753Z,45.48693,100,-61.14115,100,7.9,100,13.6,100,12.2,100,0.0,100,3.5,100,,-1,,-1,,-1,,-1,,-1,,-1,,-1,,-1,1014.3,100,23.8,100,26,100,29.5,100,5,100,2.1,1,3,1,1014.3,1,1014.3,100,1014.2,100,23.8,100,23.0,100,26,100,21,100,29.5,100,29.5,100
2023-10-18T04:30:00Z,44489,9302001,WEST CHEDABUCTO BAY,0,45.48687,-61.14100000000001,18,2023-10-18T04:30:00.000Z,110,2023-10-18T04:33:27.468Z,45.48692,100,-61.14113,100,7.9,100,13.6,100,12.2,100,0.0,100,3.5,100,,-1,,-1,,-1,,-1,,-1,,-1,,-1,,-1,1014.4,100,23.0,100,25,100,29.5,100,5,100,2.1,1,3,1,1014.4,1,1014.4,100,1014.3,100,23.0,100,22.3,100,25,100,20,100,29.5,100,29.9,100
2023-10-18T04:40:00Z,44489,9302001,WEST CHEDABUCTO BAY,0,45.48687,-61.14100000000001,18,2023-10-18T04:40:00.000Z,110,2023-10-18T04:43:31.619Z,45.48695,100,-61.141130000000004,100,7.8,100,13.6,100,12.2,100,0.0,100,3.5,100,,-1,,-1,,-1,,-1,,-1,,-1,,-1,,-1,1014.5,100,21.6,100,20,100,27.0,100,5,100,2.1,1,2,1,1014.5,1,1014.5,100,1014.5,100,21.6,100,21.2,100,20,100,15,100,27.0,100,27.0,100
2023-10-18T04:50:00Z,44489,9302001,WEST CHEDABUCTO BAY,0,45.48687,-61.14100000000001,18,2023-10-18T04:50:00.000Z,110,2023-10-18T04:53:31.288Z,45.48693,100,-61.14112,100,7.8,100,13.6,100,12.2,100,0.0,100,3.5,100,,-1,,-1,,-1,,-1,,-1,,-1,,-1,,-1,1014.7,100,20.2,100,18,100,23.4,100,5,100,2.2,1,3,1,1014.7,1,1014.7,100,1014.6,100,20.2,100,19.4,100,18,100,13,100,23.4,100,23.4,100
2023-10-18T05:00:00Z,44489,9302001,WEST CHEDABUCTO BAY,0,45.48687,-61.14100000000001,18,2023-10-18T05:00:00.000Z,108,2023-10-18T05:02:42.335Z,45.48692,100,-61.141130000000004,100,7.7,100,13.6,100,12.2,100,0.0,100,3.5,100,0.2,100,0.6,100,6.1,100,0.3,100,0.4,100,7.8,100,3.8,100,11.1,100,1014.8,100,18.7,100,19,100,23.0,100,5,100,2.2,1,2,1,1014.8,1,1014.8,100,1014.7,100,18.7,100,18.4,100,19,100,14,100,23.0,100,21.6,100
2023-10-18T05:10:00Z,44489,9302001,WEST CHEDABUCTO BAY,0,45.48687,-61.14100000000001,18,2023-10-18T05:10:00.000Z,110,2023-10-18T05:16:36.385Z,45.48695,100,-61.14115,100,7.7,100,13.6,100,12.2,100,0.0,100,3.5,100,,-1,,-1,,-1,,-1,,-1,,-1,,-1,,-1,1014.9,100,18.4,100,26,100,22.3,100,5,100,2.1,1,1,1,1014.9,1,1014.9,100,1014.8,100,18.4,100,18.0,100,26,100,21,100,22.3,100,21.2,100
2023-10-18T05:20:00Z,44489,9302001,WEST CHEDABUCTO BAY,0,45.48687,-61.14100000000001,18,2023-10-18T05:20:00.000Z,110,2023-10-18T05:22:39.601Z,45.48693,100,-61.141130000000004,100,7.7,100,13.6,100,12.2,100,0.0,100,3.5,100,,-1,,-1,,-1,,-1,,-1,,-1,,-1,,-1,1014.9,100,19.1,100,30,100,23.4,100,5,100,2.1,1,1,1,1014.9,1,1014.9,100,1014.9,100,19.1,100,18.7,100,30,100,26,100,23.4,100,22.7,100
2023-10-18T05:30:00Z,44489,9302001,WEST CHEDABUCTO BAY,0,45.48687,-61.14100000000001,18,2023-10-18T05:30:00.000Z,110,2023-10-18T05:32:38.491Z,45.48692,100,-61.14113,100,7.8,100,13.6,100,12.2,100,0.0,100,3.5,100,,-1,,-1,,-1,,-1,,-1,,-1,,-1,,-1,1015.1,100,17.6,100,26,100,21.6,100,5,100,2.2,1,1,1,1015.1,1,1015.1,100,1015.0,100,17.6,100,17.3,100,26,100,21,100,21.6,100,20.9,100
2023-10-18T05:40:00Z,44489,9302001,WEST CHEDABUCTO BAY,0,45.48687,-61.14100000000001,18,2023-10-18T05:40:00.000Z,110,2023-10-18T05:42:40.113Z,45.48692,100,-61.141130000000004,100,7.8,100,13.6,100,12.2,100,0.0,100,3.5,100,,-1,,-1,,-1,,-1,,-1,,-1,,-1,,-1,1015.3,100,17.3,100,18,100,22.7,100,5,100,2.3,1,2,1,1015.3,1,1015.3,100,1015.2,100,17.3,100,16.6,100,18,100,13,100,22.7,100,22.3,100
2023-10-18T05:50:00Z,44489,9302001,WEST CHEDABUCTO BAY,0,45.48687,-61.14100000000001,18,2023-10-18T05:50:00.000Z,110,2023-10-18T05:52:36.782Z,45.48695,100,-61.14113,100,7.7,100,13.6,100,12.2,100,0.0,100,3.5,100,,-1,,-1,,-1,,-1,,-1,,-1,,-1,,-1,1015.5,100,15.5,100,15,100,20.5,100,5,100,2.3,1,2,1,1015.5,1,1015.5,100,1015.4,100,15.5,100,15.1,100,15,100,10,100,20.5,100,20.5,100
2023-10-18T06:00:00Z,44489,9302001,WEST CHEDABUCTO BAY,0,45.48687,-61.14100000000001,18,2023-10-18T06:00:00.000Z,108,2023-10-18T06:02:56.040Z,45.4869,100,-61.141119999999994,100,7.6,100,13.6,100,12.2,100,0.0,100,3.5,100,0.2,100,0.5,100,7.2,100,0.3,100,0.3,100,8.5,100,4.8,100,10.0,100,1015.6,100,14.4,100,9,100,19.1,100,5,100,2.3,1,3,1,1015.6,1,1015.6,100,1015.6,100,14.4,100,14.0,100,9,100,5,100,19.1,100,18.4,100
2023-10-18T06:10:00Z,44489,9302001,WEST CHEDABUCTO BAY,0,45.48687,-61.14100000000001,18,2023-10-18T06:10:00.000Z,110,2023-10-18T06:15:51.072Z,45.48692,100,-61.14112,100,7.4,100,13.6,100,12.2,100,0.0,100,3.5,100,,-1,,-1,,-1,,-1,,-1,,-1,,-1,,-1,1015.7,100,14.8,100,10,100,18.4,100,5,100,2.2,1,3,1,1015.7,1,1015.7,100,1015.7,100,14.8,100,14.4,100,10,100,5,100,18.4,100,18.0,100
2023-10-18T06:20:00Z,44489,9302001,WEST CHEDABUCTO BAY,0,45.48687,-61.14100000000001,18,2023-10-18T06:20:00.000Z,110,2023-10-18T06:22:53.082Z,45.4869,100,-61.1411,100,7.5,100,13.6,100,12.2,100,0.0,100,3.5,100,,-1,,-1,,-1,,-1,,-1,,-1,,-1,,-1,1015.8,100,15.1,100,8,100,19.4,100,5,100,2.2,1,3,1,1015.8,1,1015.8,100,1015.7,100,15.1,100,14.8,100,8,100,4,100,19.4,100,18.7,100
2023-10-18T06:30:00Z,44489,9302001,WEST CHEDABUCTO BAY,0,45.48687,-61.14100000000001,18,2023-10-18T06:30:00.000Z,110,2023-10-18T06:32:52.689Z,45.48693,100,-61.14113,100,7.5,100,13.6,100,12.2,100,0.0,100,3.5,100,,-1,,-1,,-1,,-1,,-1,,-1,,-1,,-1,1015.8,100,16.2,100,3,100,20.5,100,5,100,2.1,1,2,1,1015.8,1,1015.8,100,1015.8,100,16.2,100,15.8,100,3,100,359,100,20.5,100,19.8,100
2023-10-18T06:40:00Z,44489,9302001,WEST CHEDABUCTO BAY,0,45.48687,-61.14100000000001,18,2023-10-18T06:40:00.000Z,110,2023-10-18T06:42:56.408Z,45.48692,100,-61.141119999999994,100,7.6,100,13.6,100,12.2,100,0.0,100,3.5,100,,-1,,-1,,-1,,-1,,-1,,-1,,-1,,-1,1015.9,100,16.2,100,9,100,20.9,100,5,100,2.1,1,2,1,1015.9,1,1015.9,100,1015.9,100,16.2,100,15.8,100,9,100,4,100,20.9,100,20.5,100
2023-10-18T06:50:00Z,44489,9302001,WEST CHEDABUCTO BAY,0,45.48687,-61.14100000000001,18,2023-10-18T06:50:00.000Z,110,2023-10-18T06:53:07.911Z,45.48693,100,-61.1411,100,7.8,100,13.6,100,12.2,100,0.0,100,3.5,100,,-1,,-1,,-1,,-1,,-1,,-1,,-1,,-1,1016.1,100,15.8,100,18,100,19.4,100,5,100,2.1,1,1,1,1016.1,1,1016.1,100,1016.0,100,15.8,100,15.5,100,18,100,13,100,19.4,100,19.1,100
2023-10-18T07:00:00Z,44489,9302001,WEST CHEDABUCTO BAY,0,45.48687,-61.14100000000001,18,2023-10-18T07:00:00.000Z,108,2023-10-18T07:03:06.663Z,45.48693,100,-61.141130000000004,100,8.0,100,13.6,100,12.2,100,0.0,100,3.5,100,0.2,100,0.6,100,8.8,100,0.3,100,0.4,100,9.5,100,5.9,100,10.5,100,1016.1,100,15.5,100,16,100,20.2,100,5,100,2.0,1,1,1,1016.1,1,1016.1,100,1016.1,100,15.5,100,15.1,100,16,100,11,100,20.2,100,19.8,100
2023-10-18T07:10:00Z,44489,9302001,WEST CHEDABUCTO BAY,0,45.48687,-61.14100000000001,18,2023-10-18T07:10:00.000Z,110,2023-10-18T07:16:13.606Z,45.48693,100,-61.14112,100,7.8,100,13.6,100,12.2,100,0.0,100,3.5,100,,-1,,-1,,-1,,-1,,-1,,-1,,-1,,-1,1016.2,100,16.9,100,7,100,22.0,100,5,100,2.0,1,1,1,1016.2,1,1016.2,100,1016.2,100,16.9,100,16.6,100,7,100,2,100,22.0,100,20.9,100
2023-10-18T07:20:00Z,44489,9302001,WEST CHEDABUCTO BAY,0,45.48687,-61.14100000000001,18,2023-10-18T07:20:00.000Z,110,2023-10-18T07:23:13.799Z,45.48692,100,-61.141119999999994,100,7.9,100,13.6,100,12.2,100,0.0,100,3.5,100,,-1,,-1,,-1,,-1,,-1,,-1,,-1,,-1,1016.4,100,16.6,100,8,100,20.2,100,5,100,2.1,1,2,1,1016.4,1,1016.4,100,1016.3,100,16.6,100,16.2,100,8,100,3,100,20.2,100,19.8,100
2023-10-18T07:30:00Z,44489,9302001,WEST CHEDABUCTO BAY,0,45.48687,-61.14100000000001,18,2023-10-18T07:30:00.000Z,110,2023-10-18T07:33:15.355Z,45.48693,100,-61.1411,100,7.8,100,13.7,100,12.2,100,0.0,100,3.5,100,,-1,,-1,,-1,,-1,,-1,,-1,,-1,,-1,1016.6,100,19.1,100,351,100,25.9,100,5,100,2.2,1,2,1,1016.6,1,1016.6,100,1016.5,100,19.1,100,18.4,100,351,100,346,100,25.9,100,25.6,100
2023-10-18T07:40:00Z,44489,9302001,WEST CHEDABUCTO BAY,0,45.48687,-61.14100000000001,18,2023-10-18T07:40:00.000Z,110,2023-10-18T07:43:13.801Z,45.48695,100,-61.141130000000004,100,7.7,100,13.7,100,12.2,100,0.0,100,3.5,100,,-1,,-1,,-1,,-1,,-1,,-1,,-1,,-1,1016.7,100,20.2,100,355,100,24.1,100,5,100,2.2,1,2,1,1016.7,1,1016.7,100,1016.7,100,20.2,100,19.8,100,355,100,350,100,24.1,100,24.1,100
2023-10-18T07:50:00Z,44489,9302001,WEST CHEDABUCTO BAY,0,45.48687,-61.14100000000001,18,2023-10-18T07:50:00.000Z,110,2023-10-18T07:53:23.336Z,45.48692,100,-61.14112,100,7.4,100,13.7,100,12.2,100,0.0,100,3.5,100,,-1,,-1,,-1,,-1,,-1,,-1,,-1,,-1,1016.9,100,15.8,100,6,100,21.6,100,5,100,2.2,1,2,1,1016.9,1,1016.9,100,1016.8,100,15.8,100,15.5,100,6,100,1,100,21.6,100,21.2,100
2023-10-18T08:00:00Z,44489,9302001,WEST CHEDABUCTO BAY,0,45.48687,-61.14100000000001,18,2023-10-18T08:00:00.000Z,108,2023-10-18T08:03:27.129Z,45.48693,100,-61.141119999999994,100,7.5,100,13.6,100,12.2,100,0.0,100,3.5,100,0.2,100,0.6,100,9.1,100,0.3,100,0.4,100,9.2,100,5.7,100,10.5,100,1017.0,100,15.1,100,19,100,20.5,100,5,100,2.2,1,2,1,1017.0,1,1017.0,100,1016.9,100,15.1,100,15.1,100,19,100,14,100,20.5,100,19.8,100
2023-10-18T08:10:00Z,44489,9302001,WEST CHEDABUCTO BAY,0,45.48687,-61.14100000000001,18,2023-10-18T08:10:00.000Z,110,2023-10-18T08:16:22.922Z,45.48695,100,-61.14112,100,7.6,100,13.6,100,12.2,100,0.0,100,3.5,100,,-1,,-1,,-1,,-1,,-1,,-1,,-1,,-1,1017.1,100,10.4,100,15,100,13.3,100,5,100,2.3,1,3,1,1017.1,1,1017.1,100,1017.1,100,10.4,100,10.4,100,15,100,10,100,13.3,100,13.0,100
2023-10-18T08:20:00Z,44489,9302001,WEST CHEDABUCTO BAY,0,45.48687,-61.14100000000001,18,2023-10-18T08:20:00.000Z,110,2023-10-18T08:23:29.816Z,45.48693,100,-61.1411,100,8.3,100,13.6,100,12.2,100,0.0,100,3.5,100,,-1,,-1,,-1,,-1,,-1,,-1,,-1,,-1,1017.2,100,13.7,100,20,100,20.9,100,5,100,2.3,1,1,1,1017.2,1,1017.2,100,1017.1,100,13.7,100,13.7,100,20,100,15,100,20.9,100,21.2,100
2023-10-18T08:30:00Z,44489,9302001,WEST CHEDABUCTO BAY,0,45.48687,-61.14100000000001,18,2023-10-18T08:30:00.000Z,110,2023-10-18T08:33:29.376Z,45.48695,100,-61.14112,100,8.3,100,13.6,100,12.2,100,0.0,100,3.5,100,,-1,,-1,,-1,,-1,,-1,,-1,,-1,,-1,1017.4,100,16.6,100,347,100,21.6,100,5,100,2.3,1,3,1,1017.4,1,1017.4,100,1017.3,100,16.6,100,16.2,100,347,100,342,100,21.6,100,20.5,100
2023-10-18T08:40:00Z,44489,9302001,WEST CHEDABUCTO BAY,0,45.48687,-61.14100000000001,18,2023-10-18T08:40:00.000Z,110,2023-10-18T08:43:24.715Z,45.48692,100,-61.1411,100,7.8,100,13.6,100,12.2,100,0.0,100,3.5,100,,-1,,-1,,-1,,-1,,-1,,-1,,-1,,-1,1017.6,100,11.2,100,325,100,15.5,100,5,100,2.3,1,3,1,1017.6,1,1017.6,100,1017.5,100,11.2,100,10.8,100,325,100,320,100,15.5,100,15.1,100
2023-10-18T08:50:00Z,44489,9302001,WEST CHEDABUCTO BAY,0,45.48687,-61.14100000000001,18,2023-10-18T08:50:00.000Z,110,2023-10-18T08:52:38.274Z,45.48693,100,-61.1411,100,7.9,100,13.6,100,12.2,100,0.0,100,3.5,100,,-1,,-1,,-1,,-1,,-1,,-1,,-1,,-1,1017.7,100,14.4,100,321,100,19.4,100,5,100,2.2,1,3,1,1017.7,1,1017.7,100,1017.6,100,14.4,100,14.0,100,321,100,316,100,19.4,100,18.7,100
2023-10-18T09:00:00Z,44489,9302001,WEST CHEDABUCTO BAY,0,45.48687,-61.14100000000001,18,2023-10-18T09:00:00.000Z,108,2023-10-18T09:03:41.658Z,45.48695,100,-61.1411,100,8.0,100,13.6,100,12.2,100,0.0,100,3.5,100,0.2,100,0.4,100,8.6,100,0.3,100,0.3,100,8.7,100,6.4,100,10.5,100,1017.8,100,15.1,100,325,100,19.4,100,5,100,2.2,1,3,1,1017.8,1,1017.8,100,1017.7,100,15.1,100,14.4,100,325,100,320,100,19.4,100,19.4,100
2023-10-18T09:10:00Z,44489,9302001,WEST CHEDABUCTO BAY,0,45.48687,-61.14100000000001,18,2023-10-18T09:10:00.000Z,110,2023-10-18T09:15:41.504Z,45.48693,100,-61.14112,100,8.0,100,13.6,100,12.2,100,0.0,100,3.5,100,,-1,,-1,,-1,,-1,,-1,,-1,,-1,,-1,1017.8,100,12.6,100,340,100,20.9,100,5,100,2.1,1,3,1,1017.8,1,1017.8,100,1017.8,100,12.6,100,12.2,100,340,100,336,100,20.9,100,20.5,100
2023-10-18T09:20:00Z,44489,9302001,WEST CHEDABUCTO BAY,0,45.48687,-61.14100000000001,18,2023-10-18T09:20:00.000Z,110,2023-10-18T09:22:41.584Z,45.48693,100,-61.141119999999994,100,7.9,100,13.6,100,12.2,100,0.0,100,3.5,100,,-1,,-1,,-1,,-1,,-1,,-1,,-1,,-1,1017.9,100,5.0,100,354,100,9.7,100,5,100,2.1,1,3,1,1017.9,1,1017.9,100,1017.8,100,5.0,100,5.0,100,354,100,350,100,9.7,100,9.7,100